7 * 24
多渠道服务支持
STARLINK-37036(NORAD编号68077)是美国SpaceX公司星链(Starlink)卫星互联网星座的一员,属于低轨通信卫星。星链项目旨在通过大规模低轨道卫星部署,为全球提供高速低延迟互联网服务,尤其覆盖地面基础设施难以到达的偏远区域、海洋和空中航线。 该卫星运行于近地轨道,参与构建全球卫星互联网通信网络,依托星链星座的星间激光链路技术,支持高带宽数据传输,服务个人、商业及特殊场景通信需求。作为星链持续扩展星座规模的组成部分,它与数千颗同系列卫星共同推动全球互联网覆盖,同时也面临着太空轨道拥堵和天文观测干扰等相关争议。
美国
(US)
| 数据来源 | 国际轨道数据 |
| 星历时间: | 2026-09-13T01:45:08+0800 17小时前 查看轨道信息 |
| 半长轴: | 6840.829km |
| 偏心率: | 0.0001308 |
| 轨道倾角: | 53.161° |
| 近地点辐角 | 90.847° |
| 升交点赤经 | 24.182° |
| 平近点角 | 269.268° |
| 近地点: | 461.797km |
| 远地点: | 463.587km |
| 周期: | 93.848分钟 |
| 每日圈数: | 15.344038 |
| 事件ID | 空间交会对象 | 最接近时刻(TCA) | 交会距离 | 交会风险概率(CRP) | 交会风险指数(CRI) | 操作 |
|---|---|---|---|---|---|---|
| CDM_260914-140601-298706-807721 |
COSMOS 1328
(12987)
STARLINK-37036
(68077) | 2026-09-14T 14:06:05+0000 |
2.325 km
极远距离 | 1.905135E-6 低风险 | 0.41 |